Terminal Aerodrome Forecast
Issued by NWS

Home | Current Version | Previous Version | Text Only | Print | Product List | Glossary On
Versions: 1 2 3 4 5 6 7 8 9 10 11 12 13 14 15 16 17 18 19 20 21 22 23 24 25 26 27 28 29 30 31 32 33 34 35 36 37 38 39 40 41 42 43 44 45
000
FTUS42 KMFL 261519 AAB
TAFFXE
TAF AMD
KFXE 261519Z 2615/2712 06006KT P6SM OVC025
     FM262000 07008KT P6SM BKN030
     FM270000 08005KT P6SM OVC030=

USA.gov is the U.S. government's official web portal to all federal, state and local government web resources and services.